This is the latest recevied weather packets stored in our database for station/object W8RSN-13. If no packets are shown the sender has not sent any weather packets the latest 10 day(s).
| Time | Temp. | Humidity | Pressure | Rain* | Wind** | Luminosity | Snow |
|---|---|---|---|---|---|---|---|
| 1787910271 | 25° C | 72% | 1013.3 hPa | - | - | - | - |
| 1787909969 | 25° C | 71% | 1013.3 hPa | - | - | - | - |
| 1787909669 | 25° C | 70% | 1013.3 hPa | - | - | - | - |
| 1787909368 | 25° C | 69% | 1013.4 hPa | - | - | - | - |
| 1787909067 | 25° C | 68% | 1013.3 hPa | - | - | - | - |
| 1787908766 | 25.56° C | 69% | 1013.4 hPa | - | - | - | - |
| 1787908465 | 25.56° C | 71% | 1013.4 hPa | - | - | - | - |
| 1787908165 | 25.56° C | 73% | 1013.3 hPa | - | - | - | - |
| 1787907864 | 25.56° C | 73% | 1013.3 hPa | - | - | - | - |
| 1787907563 | 25.56° C | 73% | 1013.4 hPa | - | - | - | - |
| 1787907262 | 25.56° C | 72% | 1013.4 hPa | - | - | - | - |
| 1787906961 | 25.56° C | 70% | 1013.4 hPa | - | - | - | - |
| 1787906660 | 26.11° C | 67% | 1013.3 hPa | - | - | - | - |
| 1787906359 | 26.11° C | 66% | 1013.4 hPa | - | - | - | - |
| 1787906058 | 26.11° C | 67% | 1013.4 hPa | - | - | - | - |
| 1787905757 | 26.11° C | 69% | 1013.6 hPa | - | - | - | - |
| 1787905456 | 26.11° C | 69% | 1013.3 hPa | - | - | - | - |
| 1787905175 | 26.11° C | 69% | 1013.2 hPa | - | - | - | - |
| 1787904874 | 26.11° C | 69% | 1013.3 hPa | - | - | - | - |
| 1787904574 | 26.67° C | 66% | 1013.2 hPa | - | - | - | - |
| 1787904273 | 26.67° C | 67% | 1013.4 hPa | - | - | - | - |
| 1787903972 | 26.67° C | 67% | 1013.3 hPa | - | - | - | - |
| 1787903671 | 26.67° C | 67% | 1013.3 hPa | - | - | - | - |
| 1787903370 | 26.67° C | 66% | 1013.3 hPa | - | - | - | - |
| 1787903069 | 26.67° C | 66% | 1013.3 hPa | - | - | - | - |
* Rain since midnight (hover to see other rain measurements)
** Current wind speed in m/s (hover to see current wind gust speed)